Location: Gdynia
(54.5193°N, 18.5395°E)
Time: 12:21:27
(UTC+01:00)

ISS - Pass Details

Date: 01 February 2019
Orbit: 403 x 411 km, 51.6° (Epoch: 18 February)

Event Time Altitude Azimuth Distance (km) Brightness Sun altitude
Rises 18:56:07 0° 272° (W) 2,339 1.6 -22.0°
Reaches altitude 10° 18:58:15 10° 265° (W) 1,478 0.1 -22.3°
Enters shadow 19:00:51 38° 223° (SW) 644 -2.6 -22.7°
